Wetbulb
72.09 75.86 78.56 78.42 77.49 77.52 77.59 77.14 76.73 76.91 76.79 77.86 78.36 78.76 78.55 78.52 78.34 78.25 77.89 78.00 77.75 76.98 76.50 76.09 76.18 76.00 75.65 76.39 76.70 76.79 76.40 76.56 76.38 75.99 76.62 76.34 76.03 75.82 74.82 74.80 74.64 73.41 74.99
73.53 75.84 78.57 78.43 78.08 77.80 78.05 77.65 76.90 77.43 77.18 77.17 77.69 77.94 78.21 78.51 77.95 77.17 77.46 77.08 76.65 76.55 76.42 76.03 76.36 76.35 76.46 76.75 76.60 76.47 76.77 77.63 77.07 76.51 76.41 76.09 76.24 75.71 74.34 73.68 74.58 73.29 74.35
74.24 75.82 76.83 78.42 78.62 78.33 78.21 77.95 77.38 77.18 77.08 76.89 77.42 77.16 77.26 77.85 77.69 76.97 76.89 76.87 76.50 76.09 76.09 76.09 76.29 76.42 76.62 76.46 76.48 76.40 76.68 76.83 76.99 76.54 75.89 72.41 73.59 76.16 76.08 74.89 76.10 75.96 74.43
74.60 75.64 76.23 78.32 78.53 78.36 78.43 78.15 77.77 77.16 77.12 76.97 77.35 76.79 76.79 77.19 77.07 77.20 76.96 76.59 76.99 76.86 76.53 76.58 76.96 77.00 76.58 76.38 76.06 76.09 76.48 76.44 75.97 75.63 73.00 72.33 73.90 76.42 76.08 75.18 74.95 75.62 76.07
74.46 75.35 76.09 78.70 78.69 78.14 78.43 78.31 77.96 78.00 77.28 77.32 76.95 77.19 76.80 77.17 76.92 76.99 77.19 76.88 76.54 76.82 77.07 77.07 77.17 76.91 76.63 75.90 76.67 76.41 76.31 75.98 76.44 74.39 71.43 71.32 72.31 74.56 76.36 76.11 75.22 74.59 74.47
73.87 74.95 77.99 79.08 78.56 78.09 77.95 78.05 77.81 77.80 77.90 77.81 77.15 77.40 77.28 77.07 77.09 77.01 77.08 76.83 76.93 76.48 76.75 76.76 77.09 76.71 76.61 76.57 76.17 75.65 75.63 75.55 75.42 73.48 71.52 74.00 73.03 76.20 75.61 75.33 75.74 74.91 73.28
73.30 75.12 76.97 78.82 78.84 78.59 78.75 78.62 78.02 77.89 77.98 77.93 77.56 77.33 77.08 77.06 77.35 76.99 76.82 76.98 76.96 76.74 76.63 76.83 76.41 76.46 75.50 75.43 75.50 75.70 75.26 74.86 71.88 71.38 73.23 73.41 73.25 76.33 76.45 75.98 75.34 75.32 74.27
73.20 75.42 76.32 78.23 78.57 78.26 78.19 78.04 77.52 77.24 77.18 77.17 77.77 77.31 77.24 77.29 77.08 76.79 76.58 75.91 76.18 76.75 76.83 75.97 76.03 75.76 76.55 75.90 75.77 75.12 74.67 74.23 73.62 70.70 72.90 73.68 75.50 75.95 75.99 75.60 74.14 74.16 73.74
73.97 74.90 75.65 76.10 76.58 77.75 78.05 77.97 77.80 77.35 77.28 77.25 77.32 77.87 77.60 76.90 76.91 76.90 76.89 76.23 75.34 76.46 76.23 75.39 76.34 76.26 76.26 75.86 74.58 74.36 74.67 74.92 73.10 71.45 72.79 73.04 76.04 76.21 74.55 74.80 75.06 73.74 75.51
73.47 74.20 74.68 75.11 74.45 74.82 75.43 78.03 77.93 77.57 76.94 77.32 77.41 77.44 77.30 77.04 76.83 76.62 76.97 76.98 75.06 76.62 76.65 76.62 76.23 76.51 76.02 75.12 74.59 75.12 75.04 75.27 72.63 72.08 72.33 73.11 75.97 75.98 76.08 75.76 75.66 75.03 75.06
72.31 73.17 73.87 73.53 73.29 73.63 74.46 75.70 77.72 77.23 77.35 77.26 76.92 77.35 76.69 74.02 74.77 75.79 76.21 76.41 75.56 75.94 76.51 76.77 76.47 75.91 75.70 75.39 75.53 75.42 75.05 72.77 71.96 71.94 72.16 75.22 76.93 76.91 76.36 75.75 76.17 74.92 73.95
70.66 72.28 73.23 73.01 73.09 73.59 75.34 74.39 74.46 74.82 74.40 73.50 74.12 74.07 73.85 73.59 73.37 74.72 75.58 76.71 75.92 76.19 76.50 76.72 76.07 76.35 75.58 72.67 72.47 75.02 72.90 73.59 73.40 71.46 70.33 75.72 77.26 77.50 76.25 76.07 75.44 74.19 73.89
71.46 72.49 72.83 73.06 73.06 73.31 73.75 73.41 73.47 73.06 73.51 73.08 72.43 72.32 73.01 73.03 73.48 73.95 73.03 74.10 73.31 75.14 73.63 75.31 74.72 73.62 72.72 72.21 71.34 70.97 72.63 72.21 71.67 70.86 71.24 76.14 77.00 77.43 75.74 75.90 76.29 75.32 74.78
70.67 71.63 72.54 73.03 72.81 72.84 73.40 73.55 73.24 72.97 72.86 72.56 72.73 72.32 72.56 72.02 71.41 72.51 72.48 72.40 72.16 70.78 71.98 72.87 72.89 72.91 72.04 72.03 71.42 70.66 70.78 71.09 70.69 70.42 71.42 76.49 76.34 76.62 76.40 75.87 76.10 75.18 74.60
70.04 71.15 71.88 72.42 72.14 72.15 72.58 73.20 72.76 72.60 72.84 72.76 72.92 73.31 73.09 71.52 70.81 72.06 72.43 72.69 71.53 70.05 70.12 71.85 71.80 71.91 71.55 71.43 71.10 70.86 69.62 69.28 70.93 71.35 72.28 76.50 76.52 76.85 77.06 76.40 75.70 75.42 74.73
70.51 70.61 71.87 72.11 72.01 72.11 72.12 71.65 71.94 72.49 72.54 72.14 72.55 72.82 73.50 72.22 70.66 71.82 71.83 72.42 71.77 70.57 69.23 71.17 70.56 70.36 69.94 70.08 69.74 70.49 69.74 69.95 72.53 71.78 71.52 74.27 76.36 76.60 77.09 77.06 77.15 76.35 75.57
70.70 71.11 71.37 71.94 72.28 71.72 72.61 71.70 71.47 71.81 72.30 71.84 72.19 72.26 72.86 72.09 71.43 70.89 71.44 71.44 72.30 71.54 69.66 69.69 70.39 70.10 69.69 69.89 69.44 69.43 69.30 69.12 70.85 71.76 71.66 72.39 73.97 76.46 76.24 76.98 76.49 77.15 77.09
71.30 71.25 71.76 72.90 72.28 72.43 72.69 72.31 72.08 72.40 72.24 71.96 72.33 72.44 72.75 72.54 72.11 70.21 70.68 71.09 71.58 71.43 71.34 70.46 69.62 69.13 69.81 69.01 68.74 69.21 69.59 68.79 68.75 69.98 71.66 72.31 73.20 73.94 75.82 76.74 76.48 76.72 76.95
71.59 71.83 72.09 72.45 72.23 72.58 72.31 72.73 72.31 72.09 72.33 72.21 72.71 72.75 72.55 72.88 72.82 71.32 70.82 71.11 71.28 71.05 71.40 70.94 70.40 69.58 68.98 68.66 69.13 69.30 68.92 68.02 68.50 69.66 69.10 71.79 72.28 73.28 73.13 75.01 75.96 75.98 76.61
71.88 72.54 72.58 72.83 72.28 72.61 72.56 71.67 71.78 72.11 71.89 72.16 71.96 72.67 72.47 72.93 72.90 72.27 71.52 71.47 71.30 70.70 70.43 70.45 70.05 70.48 69.71 68.96 70.12 69.80 69.44 69.80 69.33 68.43 69.03 69.74 70.54 72.63 72.66 72.46 73.03 74.19 76.68
71.64 71.98 72.56 72.59 72.29 72.33 71.90 71.18 70.38 70.60 71.59 70.74 71.67 72.29 72.69 72.13 72.09 71.87 71.40 71.16 71.21 71.00 70.72 70.96 70.06 69.27 69.43 69.04 67.54 67.09 67.63 69.07 69.60 70.24 70.16 69.68 70.09 70.16 71.89 72.34 72.40 73.05 73.61
70.86 71.46 72.21 72.67 72.72 72.13 71.79 72.21 71.26 70.91 70.36 71.36 71.52 71.85 72.70 72.53 71.86 71.23 70.32 69.88 70.42 70.22 69.74 69.90 69.02 68.58 68.60 69.32 67.05 64.86 62.55 64.38 66.62 69.46 70.22 70.67 70.40 70.54 71.00 72.21 72.26 72.82 72.72
70.62 70.95 71.59 72.55 72.68 72.43 72.20 71.85 70.28 69.41 69.19 69.45 69.19 70.65 72.27 72.73 72.74 72.05 71.40 70.65 70.56 70.16 70.03 69.84 70.01 69.16 67.79 68.40 68.50 65.41 62.36 61.07 64.31 65.80 67.66 69.34 69.68 69.25 70.23 70.37 72.11 73.04 72.81
70.57 71.76 71.62 71.91 72.53 72.51 72.36 71.02 70.97 69.73 68.63 70.39 69.72 69.50 71.39 72.65 72.51 72.81 72.36 71.68 71.08 70.47 69.25 69.90 70.90 69.79 68.33 66.84 67.47 69.11 66.82 66.33 63.68 61.65 65.62 67.47 69.07 69.44 69.28 70.81 70.63 71.20 72.57
71.19 71.36 71.72 71.66 72.04 72.21 72.29 71.52 71.18 70.24 69.77 68.02 68.50 68.45 70.92 71.09 71.79 72.31 72.05 71.53 71.26 71.80 71.09 70.35 69.84 69.46 69.52 66.88 66.66 66.43 66.95 66.23 65.68 64.33 62.72 65.15 67.65 68.96 69.46 70.22 69.33 68.65 70.07
70.15 71.53 72.03 71.35 71.49 72.29 72.09 71.57 70.61 70.05 69.06 67.92 68.84 68.52 69.83 70.83 70.98 71.48 72.01 71.62 71.00 71.13 71.19 70.89 70.29 70.24 69.70 69.07 68.40 67.97 67.03 66.14 65.29 64.26 65.01 64.49 64.78 66.38 68.64 69.46 69.84 70.38 71.12
MSLP
1009.90 1010.17 1010.55 1010.99 1011.37 1011.66 1011.97 1012.26 1012.53 1012.81 1013.11 1013.26 1013.41 1013.42 1013.38 1013.49 1013.94 1014.38 1014.54 1014.74 1014.93 1015.30 1015.68 1015.91 1016.04 1016.18 1016.40 1016.52 1016.81 1016.83 1016.95 1017.18 1017.37 1017.61 1017.66 1017.79 1017.91 1017.99 1018.13 1018.29 1018.42 1018.50 1018.60
1009.29 1010.02 1010.44 1010.93 1011.40 1011.78 1012.07 1012.34 1012.69 1012.95 1013.14 1013.29 1013.45 1013.60 1013.75 1013.87 1014.01 1014.68 1014.76 1014.93 1015.24 1015.39 1015.77 1015.99 1016.22 1016.44 1016.57 1016.72 1016.97 1017.08 1017.21 1017.39 1017.66 1017.79 1017.88 1017.98 1018.07 1018.21 1018.44 1018.60 1018.69 1018.78 1018.85
1009.25 1010.01 1010.53 1011.03 1011.42 1011.78 1012.09 1012.38 1012.64 1012.89 1013.12 1013.31 1013.64 1013.81 1013.98 1014.14 1014.32 1014.64 1014.83 1015.04 1015.37 1015.46 1015.84 1016.13 1016.32 1016.57 1016.83 1016.95 1017.19 1017.40 1017.59 1017.69 1017.94 1018.02 1018.15 1018.26 1018.18 1018.37 1018.61 1018.82 1018.86 1018.90 1019.06
1008.99 1009.83 1010.47 1011.02 1011.41 1011.76 1012.08 1012.37 1012.61 1012.96 1013.26 1013.51 1013.71 1013.98 1014.15 1014.32 1014.58 1014.60 1014.81 1015.17 1015.36 1015.48 1015.82 1016.18 1016.31 1016.64 1017.01 1017.16 1017.43 1017.77 1017.88 1018.07 1018.17 1018.28 1018.40 1018.42 1018.41 1018.67 1018.84 1019.04 1019.18 1019.22 1019.28
1009.42 1009.84 1010.47 1010.89 1011.34 1011.71 1012.03 1012.40 1012.72 1013.00 1013.29 1013.60 1013.76 1013.96 1014.24 1014.34 1014.57 1014.78 1015.00 1015.24 1015.44 1015.62 1015.88 1016.17 1016.45 1016.72 1016.99 1017.38 1017.53 1017.80 1017.98 1018.15 1018.30 1018.48 1018.61 1018.78 1018.72 1018.91 1019.00 1019.17 1019.30 1019.41 1019.53
1009.62 1010.04 1010.45 1010.94 1011.31 1011.66 1012.01 1012.41 1012.77 1013.02 1013.33 1013.56 1013.77 1013.99 1014.18 1014.33 1014.60 1014.97 1015.14 1015.45 1015.49 1015.77 1015.94 1016.23 1016.50 1016.68 1017.03 1017.45 1017.66 1017.83 1018.02 1018.25 1018.39 1018.44 1018.76 1018.92 1018.91 1018.95 1019.14 1019.36 1019.37 1019.51 1019.63
1009.69 1010.10 1010.49 1010.93 1011.38 1011.77 1012.04 1012.40 1012.78 1013.04 1013.33 1013.58 1013.71 1013.96 1014.14 1014.31 1014.61 1015.01 1015.24 1015.38 1015.69 1015.85 1016.00 1016.29 1016.54 1016.69 1017.08 1017.54 1017.75 1017.95 1018.16 1018.23 1018.35 1018.38 1018.70 1018.88 1018.97 1018.95 1019.15 1019.37 1019.55 1019.67 1019.78
1009.44 1009.99 1010.44 1010.96 1011.35 1011.76 1012.02 1012.31 1012.78 1013.06 1013.19 1013.44 1013.58 1013.83 1014.13 1014.36 1014.69 1014.86 1015.30 1015.51 1015.82 1015.95 1016.02 1016.22 1016.53 1016.70 1017.05 1017.47 1017.77 1017.96 1018.17 1018.18 1018.32 1018.62 1018.86 1018.89 1018.86 1018.92 1019.16 1019.41 1019.65 1019.79 1019.91
1009.56 1009.89 1010.43 1010.99 1011.32 1011.59 1011.87 1012.22 1012.58 1013.02 1013.23 1013.38 1013.57 1013.78 1014.07 1014.38 1014.71 1014.90 1015.27 1015.57 1015.80 1016.05 1016.06 1016.29 1016.56 1016.83 1017.05 1017.33 1017.59 1017.85 1018.14 1018.18 1018.44 1018.52 1018.85 1018.99 1018.79 1018.86 1019.09 1019.31 1019.58 1019.79 1019.89
1009.65 1009.94 1010.43 1010.85 1011.22 1011.61 1011.95 1012.18 1012.42 1012.76 1013.03 1013.21 1013.45 1013.82 1014.09 1014.33 1014.60 1015.01 1015.36 1015.49 1015.75 1015.96 1016.14 1016.35 1016.56 1016.78 1017.08 1017.30 1017.45 1017.63 1018.00 1018.13 1018.30 1018.57 1018.73 1019.02 1018.85 1018.85 1018.98 1019.22 1019.45 1019.68 1019.88
1009.80 1010.00 1010.40 1010.79 1011.08 1011.49 1011.89 1012.19 1012.45 1012.63 1012.90 1013.19 1013.46 1013.81 1014.06 1014.43 1014.68 1014.90 1015.27 1015.47 1015.74 1015.87 1016.14 1016.36 1016.57 1016.76 1016.97 1017.24 1017.41 1017.55 1017.82 1018.07 1018.17 1018.31 1018.52 1018.80 1018.91 1018.74 1018.89 1019.09 1019.37 1019.61 1019.82
1009.65 1010.14 1010.38 1010.71 1010.94 1011.24 1011.59 1011.97 1012.38 1012.57 1012.90 1013.26 1013.51 1013.70 1014.13 1014.40 1014.63 1014.92 1015.21 1015.37 1015.55 1015.80 1016.10 1016.31 1016.52 1016.76 1016.94 1017.19 1017.45 1017.51 1017.86 1017.91 1017.92 1018.05 1018.20 1018.54 1018.80 1018.83 1018.86 1019.05 1019.26 1019.49 1019.70
1008.62 1009.64 1010.23 1010.68 1010.78 1011.02 1011.37 1011.88 1012.30 1012.56 1012.81 1013.22 1013.51 1013.74 1014.01 1014.32 1014.55 1014.91 1015.24 1015.29 1015.54 1015.76 1016.09 1016.30 1016.49 1016.78 1016.98 1017.23 1017.41 1017.61 1017.62 1017.73 1017.63 1017.81 1017.89 1018.19 1018.67 1018.84 1018.83 1018.91 1019.11 1019.33 1019.49
1008.33 1008.82 1009.70 1010.34 1010.81 1011.05 1011.08 1011.51 1011.93 1012.38 1012.72 1013.06 1013.34 1013.66 1013.98 1014.26 1014.60 1014.93 1015.18 1015.38 1015.63 1015.84 1016.17 1016.33 1016.50 1016.80 1016.92 1017.12 1017.33 1017.50 1017.37 1017.19 1017.19 1017.30 1017.68 1018.01 1018.54 1018.87 1018.90 1018.82 1019.01 1019.11 1019.28
1007.93 1008.32 1008.98 1009.75 1010.35 1010.78 1011.17 1011.36 1011.65 1011.96 1012.22 1012.56 1012.98 1013.36 1013.70 1014.03 1014.41 1014.58 1014.99 1015.26 1015.60 1015.83 1016.02 1016.27 1016.56 1016.72 1016.84 1017.00 1017.16 1017.34 1017.23 1017.02 1017.05 1017.34 1017.56 1017.84 1018.24 1018.55 1018.73 1018.77 1018.83 1018.91 1019.03
1007.03 1007.61 1008.23 1009.04 1009.69 1010.32 1010.69 1011.14 1011.41 1011.55 1011.83 1012.29 1012.62 1012.91 1013.32 1013.71 1014.13 1014.30 1014.80 1015.14 1015.47 1015.63 1015.94 1016.18 1016.36 1016.51 1016.74 1016.79 1016.84 1016.91 1016.93 1016.79 1016.85 1017.30 1017.48 1017.73 1017.86 1018.18 1018.33 1018.41 1018.48 1018.58 1018.75
1006.19 1006.91 1007.68 1008.34 1009.21 1009.78 1010.21 1010.59 1011.02 1011.25 1011.64 1012.04 1012.33 1012.63 1013.05 1013.44 1013.84 1014.23 1014.70 1015.07 1015.14 1015.49 1015.89 1016.16 1016.29 1016.47 1016.75 1016.57 1016.64 1016.51 1016.79 1016.76 1016.74 1016.94 1017.25 1017.62 1017.77 1017.92 1018.01 1018.05 1018.02 1018.07 1018.27
1005.63 1006.10 1007.05 1007.80 1008.70 1009.33 1009.82 1010.22 1010.62 1010.90 1011.27 1011.63 1011.99 1012.42 1012.75 1013.13 1013.53 1014.10 1014.57 1014.83 1014.97 1015.31 1015.59 1015.95 1016.30 1016.56 1016.73 1016.84 1016.75 1016.62 1016.48 1016.49 1016.53 1016.65 1016.77 1017.05 1017.40 1017.56 1017.69 1017.66 1017.64 1017.60 1017.80
1004.67 1005.43 1006.27 1007.13 1007.90 1008.75 1009.44 1009.92 1010.21 1010.61 1011.00 1011.17 1011.50 1011.90 1012.37 1012.78 1013.15 1013.69 1014.19 1014.35 1014.75 1015.15 1015.42 1015.71 1016.13 1016.27 1016.45 1016.63 1016.65 1016.67 1016.61 1016.44 1016.29 1016.23 1016.56 1016.59 1016.81 1017.07 1017.29 1017.26 1017.25 1017.39 1017.35
1004.15 1004.97 1005.37 1006.31 1007.31 1008.06 1008.82 1009.58 1010.11 1010.38 1010.71 1010.91 1011.19 1011.51 1011.84 1012.30 1012.72 1013.24 1013.68 1014.01 1014.30 1014.87 1015.34 1015.57 1015.77 1015.89 1016.01 1016.16 1016.31 1016.40 1016.52 1016.46 1016.19 1016.12 1016.13 1016.04 1016.25 1016.54 1016.79 1016.88 1016.80 1016.84 1016.84
1004.08 1004.53 1005.09 1005.61 1006.62 1007.63 1008.32 1008.86 1009.55 1009.91 1010.28 1010.60 1010.76 1010.90 1011.34 1011.82 1012.33 1012.77 1013.32 1013.65 1013.92 1014.44 1014.73 1015.01 1015.20 1015.51 1015.81 1015.84 1016.42 1016.49 1016.45 1016.27 1016.15 1015.96 1015.57 1015.62 1015.71 1015.97 1016.09 1016.17 1016.29 1016.31 1016.28
1002.84 1003.62 1004.16 1004.88 1005.47 1006.45 1007.33 1008.09 1008.66 1009.22 1009.77 1010.01 1010.38 1010.56 1010.84 1011.21 1011.75 1012.31 1012.79 1013.23 1013.56 1013.97 1014.41 1014.83 1015.19 1015.50 1015.74 1015.92 1016.27 1016.83 1016.86 1016.37 1015.88 1015.68 1015.57 1015.52 1015.57 1015.50 1015.48 1015.42 1015.64 1015.81 1015.72
1002.27 1002.83 1003.20 1003.95 1004.50 1005.24 1006.21 1007.34 1008.31 1009.01 1009.53 1009.87 1010.15 1010.26 1010.51 1010.68 1011.04 1011.53 1011.91 1012.46 1013.00 1013.38 1013.72 1014.09 1014.50 1014.91 1015.36 1015.54 1015.69 1016.29 1016.82 1016.52 1016.14 1015.40 1015.12 1015.08 1015.21 1015.30 1015.14 1015.20 1015.14 1015.28 1015.40
1000.69 1001.91 1002.78 1003.43 1004.16 1004.37 1005.40 1006.29 1007.17 1007.98 1008.73 1009.04 1009.38 1009.84 1010.07 1010.19 1010.68 1011.12 1011.34 1011.89 1012.40 1012.95 1013.48 1013.85 1013.99 1014.36 1014.81 1015.37 1015.64 1015.67 1015.67 1015.99 1016.15 1015.97 1015.41 1015.15 1015.14 1014.99 1015.01 1014.97 1015.00 1015.01 1015.01
1000.37 1000.97 1002.07 1003.03 1003.73 1003.94 1004.39 1005.63 1006.66 1007.44 1008.25 1008.78 1009.10 1009.46 1009.76 1010.02 1010.22 1010.30 1010.72 1011.28 1011.81 1012.32 1012.76 1013.23 1013.68 1014.03 1014.29 1014.70 1014.90 1015.23 1015.64 1015.86 1016.00 1016.24 1015.81 1015.48 1015.22 1014.93 1014.97 1014.72 1014.44 1014.37 1014.16
1003.61 1003.65 1002.52 1003.08 1003.61 1004.25 1003.95 1004.64 1005.76 1006.80 1007.68 1008.38 1008.83 1009.14 1009.33 1009.44 1009.72 1009.88 1010.34 1010.87 1011.18 1011.50 1011.89 1012.43 1013.03 1013.56 1013.97 1014.24 1014.38 1014.55 1014.91 1015.31 1015.48 1015.62 1015.66 1015.31 1015.35 1014.90 1014.76 1014.66 1014.34 1013.92 1013.69
Wind_Speed
12 13 17 17 17 16 16 15 17 16 16 17 17 18 20 21 20 17 18 17 17 16 15 14 14 13 13 14 13 14 15 18 18 18 17 17 17 16 15 15 15 11 16
15 14 18 17 17 17 17 16 16 15 16 16 16 17 18 18 18 17 16 16 17 16 15 14 12 11 12 13 12 12 15 16 17 18 17 15 15 18 17 16 15 13 15
16 13 14 17 17 17 17 16 16 15 15 16 14 15 16 16 17 16 15 15 15 15 14 12 12 11 11 12 12 12 14 15 16 16 16 4 7 14 16 14 13 16 16
17 14 13 17 17 17 17 16 16 15 15 15 15 14 15 15 14 16 15 15 14 15 14 12 13 12 10 12 13 13 13 14 15 16 6 5 10 15 16 15 14 14 14
16 13 14 19 18 18 17 16 16 15 15 14 15 15 14 15 14 14 14 14 15 14 15 13 13 12 10 10 11 10 12 14 16 12 5 5 6 12 14 14 14 14 13
15 13 18 20 20 18 18 18 17 16 15 14 14 15 14 15 13 13 13 14 14 15 14 13 13 12 10 10 10 8 8 10 8 4 8 9 6 14 15 14 13 14 13
15 13 16 20 19 19 19 19 18 17 17 15 15 15 14 14 14 13 13 13 13 14 14 13 11 11 10 9 10 8 7 5 4 8 8 7 8 14 15 14 13 13 12
18 15 14 19 19 20 20 21 20 18 18 16 15 15 13 14 13 13 13 13 12 12 13 12 11 11 10 9 8 7 5 3 6 5 4 6 11 15 15 14 13 13 12
16 15 13 13 16 21 20 20 20 18 17 16 14 14 14 13 13 13 13 13 12 12 12 13 12 10 10 7 5 5 4 4 3 6 7 4 15 16 16 15 14 12 11
14 15 14 12 11 10 11 18 18 18 16 15 16 15 14 14 13 14 12 12 13 12 13 11 12 10 9 7 5 3 3 3 2 5 5 4 14 17 17 17 14 13 12
12 13 12 12 10 9 7 12 16 19 17 17 15 15 12 4 7 11 10 13 13 13 12 12 11 10 9 7 5 4 2 1 2 3 4 10 14 17 17 16 16 14 13
15 13 11 11 12 11 9 7 6 8 5 5 5 6 5 5 5 7 10 13 13 13 12 12 11 10 8 2 1 5 1 4 4 3 5 13 15 17 17 16 15 15 14
19 12 13 11 11 12 10 6 4 3 4 4 6 5 5 4 4 4 3 4 4 10 4 6 6 3 4 3 3 2 2 4 3 3 7 17 16 16 17 16 17 16 15
19 18 15 13 12 10 7 7 6 5 5 5 6 7 5 4 4 4 4 4 4 3 4 4 3 4 5 5 5 3 5 4 3 3 6 17 15 15 17 17 17 17 16
18 18 18 16 13 10 10 7 7 7 6 6 6 7 6 5 5 5 5 5 4 4 4 4 4 4 4 5 4 5 5 5 4 2 4 17 16 17 17 17 17 17 17
20 19 19 18 16 13 11 10 8 7 7 6 6 7 8 6 5 6 6 6 5 4 4 5 5 5 5 4 5 5 5 3 5 5 4 6 17 17 17 17 18 18 17
20 20 20 19 17 14 13 12 8 7 7 7 7 6 7 6 7 6 6 6 6 5 6 4 4 3 4 3 6 5 4 5 4 7 5 4 5 15 15 17 18 18 18
20 22 20 17 18 15 13 11 8 7 7 7 6 6 9 9 8 6 6 6 5 5 5 4 4 4 4 4 4 5 5 5 6 5 5 6 6 6 12 18 17 18 19
22 22 21 19 19 17 13 10 9 8 7 7 7 7 9 10 10 8 6 6 6 4 5 4 4 4 4 3 4 4 4 5 5 4 7 7 8 8 6 11 17 18 19
21 21 21 18 18 17 11 9 6 6 6 6 7 8 10 9 11 8 7 5 6 5 5 4 5 4 3 4 3 2 2 4 4 4 5 6 6 8 8 8 7 10 18
19 21 21 20 19 14 10 10 9 10 7 7 9 11 9 9 9 9 6 6 5 7 8 9 4 6 5 4 2 2 2 5 5 5 4 5 5 7 8 8 6 6 7
23 22 22 21 21 16 12 11 8 9 3 7 8 8 10 11 9 9 8 7 7 4 6 5 4 2 2 4 3 2 2 4 3 6 5 5 7 4 5 9 8 8 8
22 24 23 22 22 19 17 11 3 3 2 3 4 6 8 11 12 11 9 7 7 6 7 7 6 7 4 4 5 4 1 5 1 2 5 5 5 4 6 4 6 6 6
25 21 21 21 21 19 19 16 17 11 11 9 6 4 6 11 11 11 11 9 9 5 5 6 6 5 4 4 1 5 2 3 3 3 2 2 2 5 3 3 2 4 4
21 23 20 20 20 19 19 17 14 13 8 4 3 7 8 9 13 13 11 9 9 7 7 8 5 5 5 4 4 3 4 3 2 2 4 4 2 3 4 5 4 4 5
5 6 16 18 18 16 19 19 18 17 10 5 7 7 7 7 8 10 11 10 9 9 9 9 8 8 8 6 4 5 5 4 5 4 6 3 3 4 4 4 4 3 4
Wind_Direction
163 160 158 155 149 142 135 128 122 116 114 111 111 108 108 110 117 117 120 124 126 124 123 115 112 113 117 111 115 120 119 120 121 123 124 123 124 122 117 119 117 110 110
139 152 155 155 155 153 143 135 130 125 119 111 109 109 111 111 114 124 125 127 131 131 131 125 118 119 123 118 118 119 119 119 129 127 123 126 129 129 117 124 127 122 121
137 148 151 155 154 152 146 140 135 128 124 120 118 116 114 116 118 122 127 134 134 133 135 134 127 130 127 124 120 120 128 126 132 127 113 101 119 131 127 126 117 125 122
140 146 150 156 154 152 148 143 138 138 137 134 131 129 128 126 128 123 125 133 133 138 139 136 128 133 138 124 125 131 135 132 132 130 115 120 114 131 130 127 127 120 123
139 143 155 156 155 155 152 147 148 147 146 146 140 140 138 132 133 130 133 136 137 133 136 137 138 138 141 136 136 136 139 142 140 133 123 115 119 131 127 135 134 130 126
140 145 153 154 155 156 156 157 157 155 153 153 150 150 144 138 138 134 138 142 142 141 139 142 148 142 148 150 144 135 135 147 168 196 144 146 133 139 143 142 142 135 136
146 153 151 154 154 156 157 160 160 161 159 158 158 149 147 147 143 136 139 136 140 146 147 150 148 149 165 164 146 149 133 127 99 123 151 144 152 151 143 144 143 143 146
152 155 156 158 157 157 155 156 161 165 160 161 158 149 154 147 144 141 147 143 148 148 151 148 158 163 171 166 153 139 136 81 77 127 140 152 155 147 150 147 152 156 157
154 150 156 159 162 160 157 157 158 164 164 159 158 156 156 154 157 154 157 150 152 152 151 154 161 166 179 174 174 156 129 93 85 161 168 180 162 158 158 157 158 158 158
156 156 158 160 159 158 163 162 161 163 167 163 159 160 159 160 163 164 161 154 157 156 157 162 166 177 184 187 195 181 124 99 130 144 169 193 172 167 165 163 162 164 166
156 159 161 162 156 153 156 169 166 165 166 167 166 165 164 147 161 162 161 166 162 163 162 170 176 185 197 197 215 227 185 209 226 196 171 192 191 176 170 168 170 172 175
160 167 167 164 162 157 164 171 164 172 162 159 160 159 146 160 157 153 169 175 168 169 170 178 186 196 206 197 257 261 139 229 198 194 178 190 195 188 177 174 174 177 181
165 163 171 169 168 166 167 159 164 154 153 155 164 165 161 158 172 151 163 177 159 179 172 180 184 194 191 208 247 246 240 238 251 213 183 189 194 194 186 184 180 184 189
167 169 171 173 173 178 162 168 166 167 168 173 179 177 167 168 171 166 169 170 169 157 173 180 178 208 204 217 222 244 242 251 248 178 173 179 194 202 196 188 188 193 195
171 172 173 173 178 177 171 172 174 181 181 183 180 182 173 180 168 155 175 168 178 171 172 184 192 213 223 234 229 215 238 233 172 160 154 184 193 207 204 199 198 202 202
172 174 172 177 180 177 179 177 183 185 185 183 186 190 188 174 163 168 170 181 187 183 183 192 190 198 227 228 251 226 204 208 162 177 184 198 197 211 210 204 205 208 211
179 173 176 175 180 181 183 180 181 188 182 187 194 177 172 171 175 171 176 185 193 187 184 202 209 210 226 241 261 266 200 205 174 174 182 191 217 218 218 217 209 208 214
176 174 175 177 179 179 183 182 182 186 185 191 185 183 182 182 173 177 186 192 193 177 184 184 191 214 232 216 223 243 241 202 193 200 193 190 198 210 231 227 219 218 213
177 176 174 177 178 181 181 184 186 177 184 193 190 186 187 187 185 176 193 197 172 183 195 178 209 182 208 212 204 230 233 246 234 185 201 199 202 206 210 230 228 226 222
178 178 173 172 178 179 177 179 189 187 184 184 192 194 182 189 186 183 191 194 177 176 194 178 194 196 181 193 200 227 281 273 265 247 230 203 206 206 212 219 220 229 230
180 176 179 170 175 174 181 182 191 200 198 189 195 192 187 183 182 184 191 184 183 192 200 196 182 186 212 171 118 309 278 240 262 252 236 246 220 202 208 214 212 213 225
179 181 177 179 171 178 181 188 192 193 185 191 188 189 187 184 184 187 187 184 187 179 189 188 177 153 213 180 149 93 284 315 266 233 229 225 233 229 223 219 211 214 216
181 184 181 178 176 176 178 177 132 119 113 167 181 186 196 190 192 193 195 190 184 185 189 185 177 175 190 207 190 153 142 231 328 292 250 241 236 212 233 221 218 222 227
191 180 178 177 183 175 173 178 182 194 200 206 191 174 186 190 193 193 197 190 186 185 183 188 186 182 150 195 248 232 203 152 190 313 317 332 246 237 195 192 184 245 246
177 181 179 178 183 181 172 178 183 193 196 186 173 168 188 194 195 194 200 186 188 184 190 188 182 185 187 165 179 157 235 234 208 172 259 281 300 247 229 229 215 229 205
333 230 176 182 186 188 176 174 184 190 180 166 192 190 193 196 196 200 196 197 195 187 185 190 189 198 207 216 210 197 188 179 209 187 231 228 238 274 219 234 227 227 284